Regional Weather Roundup
Issued by NWS

Home | Current Version | Previous Version | Text Only | Print | Product List | Glossary On
Versions: 1 2 3 4 5 6 7 8 9 10 11 12 13 14 15 16 17 18 19 20 21 22 23 24 25 26 27 28 29 30 31 32 33 34 35 36 37 38 39 40 41 42 43 44 45 46 47 48 49 50
000
ASUS43 KTOP 030959
RWRKS

WEATHER ROUNDUP FOR KANSAS
NATIONAL WEATHER SERVICE GOODLAND KS
500 AM CDT FRI JUL 03 2015

NOTE:  "FAIR" INDICATES FEW OR NO CLOUDS BELOW 12,000 FEET WITH NO
SIGNIFICANT WEATHER AND/OR OBSTRUCTIONS TO VISIBILITY.

KSZ001>006-013>018-027>032-041>047-031100-
NORTHWEST KANSAS

CITY           SKY/WX    TMP DP  RH WIND       PRES   REMARKS
GOODLAND       PTCLDY    58  55  90 CALM      30.08F
HAYS           CLEAR     64  55  72 NW5       29.99S
HILL CITY      CLEAR     61  59  93 VRB3      30.01S
RUSSELL        CLEAR     64  62  93 NW6       29.96S
$$

KSZ061>065-074>080-084>089-031100-
SOUTHWEST KANSAS

CITY           SKY/WX    TMP DP  RH WIND       PRES   REMARKS
DODGE CITY     CLEAR     65  62  90 SW7       30.01R
ELKHART          N/A     65  59  81 W7          N/A
GARDEN CITY    PTCLDY    67  64  90 N5        30.03S
GREAT BEND     CLEAR     66  61  82 N7        29.98R
LIBERAL        CLEAR     64  59  82 NW3       30.05R
$$

KSZ066>073-081>083-090>101-031100-
SOUTHEAST KANSAS

CITY           SKY/WX    TMP DP  RH WIND       PRES   REMARKS
CHANUTE        FOG       68  68 100 CALM      29.89F VSB 1/4
COFFEYVILLE    CLEAR     69  68  96 CALM      29.88S
HUTCHINSON     CLEAR     66  64  93 NW6       29.93S FOG
MEDICINE LODGE   N/A     67  64  90 N5        29.93S
NEWTON         CLEAR     66  63  88 NW6       29.95R
PARSONS        CLEAR     68  68 100 CALM      29.89F
WICHITA INTL   PTCLDY    68  65  90 CALM      29.91S
WICHITA JABRA  PTCLDY    69  67  93 W6        29.91F
WINFIELD       CLEAR     65  65 100 CALM      29.93S FOG
$$

KSZ007>012-019>026-033>040-048>060-102>105-031100-
NORTHEAST KANSAS

CITY           SKY/WX    TMP DP  RH WIND       PRES   REMARKS
CONCORDIA      CLOUDY    66  66 100 N9        29.94S FOG
EMPORIA        PTCLDY    68  66  93 W3        29.90F
LAWRENCE       LGT RAIN  67  65  93 NE5       29.92R FOG
MANHATTAN      CLOUDY    70  68  93 NE6       29.91S FOG
OLATHE IND     CLOUDY    67  66  97 E7        29.92S
OLATHE EXE     CLOUDY    66  63  90 E7        29.91S
SALINA         PTCLDY    65  62  90 W7        29.93F
TOPEKA BILLARD CLOUDY    69  67  93 E7        29.91S FOG
TOPEKA FORBES  CLOUDY    70  67  90 E7        29.91S FOG
$$


USA.gov is the U.S. government's official web portal to all federal, state and local government web resources and services.